IBE78 KJFK-KMIA

Flight info

Callsign IBE78
Flight time N/A
Altitude 40000
Route WAVEY EMJAY Q167 KALDA Q101 SKARP Y313 HOAGG BNFSH3
Aircraft A346/H-SDE2E3FGHIJ3J4J5M1RWXY/LB1D1

Departure

Time 2026-05-09 14:59
Airport John F. Kennedy International Airport (KJFK)

Arrival

Time N/A
Airport Miami International Airport (KMIA)
Time Latitude Longitude Altitude Speed Heading
2026-05-09 14:11 40.64859 -73.78873 32 ft 0 kts 245°
2026-05-09 14:37 40.64856 -73.78879 32 ft 3 kts 245°
2026-05-09 14:37 40.64862 -73.78862 31 ft 4 kts 242°
2026-05-09 14:37 40.64874 -73.78842 29 ft 4 kts 237°
2026-05-09 14:37 40.64879 -73.78829 30 ft 4 kts 283°
2026-05-09 14:38 40.64874 -73.78820 29 ft 4 kts 331°
2026-05-09 14:38 40.64851 -73.78805 30 ft 4 kts 335°
2026-05-09 14:38 40.64836 -73.78797 30 ft 0 kts 335°
2026-05-09 14:50 40.64846 -73.78803 32 ft 3 kts 335°
2026-05-09 14:51 40.64881 -73.78822 32 ft 7 kts 340°
2026-05-09 14:51 40.64944 -73.78849 32 ft 12 kts 343°
2026-05-09 14:51 40.65029 -73.78900 32 ft 15 kts 339°
2026-05-09 14:51 40.65116 -73.78902 32 ft 11 kts 34°
2026-05-09 14:52 40.65139 -73.78818 32 ft 9 kts 82°
2026-05-09 14:52 40.65162 -73.78720 32 ft 13 kts 66°
2026-05-09 14:52 40.65205 -73.78611 36 ft 14 kts 61°
2026-05-09 14:52 40.65251 -73.78501 32 ft 16 kts 62°
2026-05-09 14:53 40.65258 -73.78361 33 ft 10 kts 112°
2026-05-09 14:53 40.65221 -73.78266 34 ft 13 kts 118°
2026-05-09 14:53 40.65164 -73.78149 30 ft 14 kts 123°
2026-05-09 14:53 40.65155 -73.78131 31 ft 2 kts 123°
2026-05-09 14:54 40.65140 -73.78100 31 ft 6 kts 122°
2026-05-09 14:54 40.65115 -73.78041 31 ft 8 kts 104°
2026-05-09 14:54 40.65152 -73.77976 30 ft 12 kts 36°
2026-05-09 14:54 40.65236 -73.77907 27 ft 13 kts 31°
2026-05-09 14:55 40.65306 -73.77853 28 ft 3 kts 30°
2026-05-09 14:55 40.65330 -73.77833 28 ft 5 kts 35°
2026-05-09 14:55 40.65344 -73.77784 28 ft 7 kts 98°
2026-05-09 14:55 40.65311 -73.77713 28 ft 11 kts 123°
2026-05-09 14:56 40.65262 -73.77609 27 ft 16 kts 121°
2026-05-09 14:56 40.65198 -73.77467 27 ft 20 kts 121°
2026-05-09 14:56 40.65125 -73.77305 28 ft 22 kts 121°
2026-05-09 14:56 40.65043 -73.77125 29 ft 24 kts 121°
2026-05-09 14:57 40.64960 -73.76942 30 ft 23 kts 121°
2026-05-09 14:57 40.64891 -73.76788 30 ft 13 kts 121°
2026-05-09 14:57 40.64898 -73.76686 30 ft 14 kts 35°
2026-05-09 14:57 40.64995 -73.76607 30 ft 18 kts 31°
2026-05-09 14:58 40.65090 -73.76521 30 ft 15 kts 61°
2026-05-09 14:58 40.65073 -73.76404 31 ft 13 kts 127°
2026-05-09 14:58 40.64985 -73.76376 31 ft 16 kts 207°
2026-05-09 14:58 40.64915 -73.76438 30 ft 2 kts 211°
2026-05-09 14:59 40.64909 -73.76444 29 ft 13 kts 211°
2026-05-09 14:59 40.64536 -73.76734 29 ft 109 kts 210°
2026-05-09 14:59 40.63640 -73.77435 43 ft 186 kts 209°
2026-05-09 14:59 40.62471 -73.78369 842 ft 198 kts 210°
2026-05-09 15:00 40.61316 -73.79266 2082 ft 188 kts 212°
2026-05-09 15:00 40.60138 -73.80132 2970 ft 201 kts 212°
2026-05-09 15:00 40.58853 -73.81043 3688 ft 219 kts 211°
2026-05-09 15:00 40.57466 -73.82042 4383 ft 233 kts 211°
2026-05-09 15:01 40.54497 -73.83912 4992 ft 242 kts 191°
2026-05-09 15:01 40.52836 -73.83665 4997 ft 253 kts 163°
2026-05-09 15:01 40.51390 -73.82271 5000 ft 269 kts 134°
2026-05-09 15:02 40.50577 -73.80022 5055 ft 285 kts 107°
2026-05-09 15:02 40.50507 -73.77401 5234 ft 292 kts 90°
2026-05-09 15:02 40.50700 -73.74735 5972 ft 294 kts 88°
2026-05-09 15:02 40.50940 -73.72053 6758 ft 296 kts 87°
2026-05-09 15:03 40.51197 -73.69352 7537 ft 299 kts 87°
2026-05-09 15:03 40.51466 -73.66627 8337 ft 302 kts 87°
2026-05-09 15:03 40.51747 -73.63867 9141 ft 306 kts 87°
2026-05-09 15:03 40.51998 -73.61081 9956 ft 307 kts 94°
2026-05-09 15:04 40.51552 -73.58424 10686 ft 294 kts 127°
2026-05-09 15:04 40.50203 -73.56561 11426 ft 283 kts 157°
2026-05-09 15:06 40.34878 -73.47115 14343 ft 381 kts 159°
2026-05-09 15:06 40.32486 -73.45524 14973 ft 390 kts 161°
2026-05-09 15:06 40.29913 -73.44518 15584 ft 384 kts 181°
2026-05-09 15:06 40.27317 -73.44965 16320 ft 374 kts 204°
2026-05-09 15:07 40.24991 -73.46443 17151 ft 372 kts 213°
2026-05-09 15:07 40.22702 -73.48075 17981 ft 377 kts 213°
2026-05-09 15:07 40.20368 -73.49707 18664 ft 383 kts 213°
2026-05-09 15:07 40.17993 -73.51339 19340 ft 388 kts 212°
2026-05-09 15:08 40.15586 -73.52971 20026 ft 391 kts 212°
2026-05-09 15:08 40.10711 -73.56238 21323 ft 401 kts 212°
2026-05-09 15:08 40.08211 -73.57901 22029 ft 405 kts 212°
2026-05-09 15:09 40.05686 -73.59575 22671 ft 409 kts 211°
2026-05-09 15:10 39.87769 -73.71393 24237 ft 417 kts 211°
2026-05-09 15:11 39.85206 -73.73074 24861 ft 419 kts 211°
2026-05-09 15:11 39.82591 -73.74790 25428 ft 422 kts 211°
2026-05-09 15:11 39.79955 -73.76519 25984 ft 426 kts 211°
2026-05-09 15:11 39.77300 -73.78259 26546 ft 429 kts 211°
2026-05-09 15:12 39.74626 -73.80011 27072 ft 432 kts 212°
2026-05-09 15:12 39.71932 -73.81775 27613 ft 435 kts 212°
2026-05-09 15:12 39.69221 -73.83549 28174 ft 438 kts 212°
2026-05-09 15:12 39.66490 -73.85332 28708 ft 441 kts 212°
2026-05-09 15:13 39.63753 -73.87117 29393 ft 440 kts 212°
2026-05-09 15:13 39.61069 -73.88863 30228 ft 436 kts 212°
2026-05-09 15:13 39.58370 -73.90616 30959 ft 432 kts 212°
2026-05-09 15:13 39.55687 -73.92360 31608 ft 431 kts 212°
2026-05-09 15:14 39.53008 -73.94103 32202 ft 430 kts 212°
2026-05-09 15:14 39.50334 -73.95839 32797 ft 429 kts 212°
2026-05-09 15:14 39.47671 -73.97567 33414 ft 428 kts 213°
2026-05-09 15:14 39.45049 -73.99382 33998 ft 425 kts 216°
2026-05-09 15:15 39.42570 -74.01299 34513 ft 422 kts 218°
2026-05-09 15:15 39.40123 -74.03403 34979 ft 420 kts 220°
2026-05-09 15:15 39.37777 -74.05636 35474 ft 417 kts 223°
2026-05-09 15:15 39.35538 -74.07986 35943 ft 413 kts 226°
2026-05-09 15:16 39.33349 -74.10378 36493 ft 410 kts 226°
2026-05-09 15:16 39.31169 -74.12749 36986 ft 408 kts 226°
2026-05-09 15:16 39.28997 -74.15111 37425 ft 407 kts 226°
2026-05-09 15:16 39.26830 -74.17468 37823 ft 407 kts 226°
2026-05-09 15:17 39.24670 -74.19818 38206 ft 406 kts 226°
2026-05-09 15:17 39.22506 -74.22171 38556 ft 406 kts 226°
2026-05-09 15:17 39.20341 -74.24525 38807 ft 407 kts 226°
2026-05-09 15:17 39.18167 -74.26887 38990 ft 409 kts 226°
2026-05-09 15:18 39.15984 -74.29257 39142 ft 411 kts 226°
2026-05-09 15:18 39.13823 -74.31599 39352 ft 412 kts 226°
2026-05-09 15:18 39.11623 -74.33983 39524 ft 413 kts 226°
2026-05-09 15:18 39.09418 -74.36369 39718 ft 415 kts 226°
2026-05-09 15:19 39.07197 -74.38770 39839 ft 417 kts 226°
2026-05-09 15:19 39.04969 -74.41178 39993 ft 419 kts 226°
2026-05-09 15:19 39.00485 -74.46011 40015 ft 421 kts 226°
2026-05-09 15:20 38.93798 -74.53250 40009 ft 419 kts 227°
2026-05-09 15:21 38.89486 -74.58307 40019 ft 419 kts 228°
2026-05-09 15:21 38.85158 -74.63362 40018 ft 419 kts 228°
2026-05-09 15:22 38.80835 -74.68410 40013 ft 419 kts 228°
2026-05-09 15:22 38.76551 -74.73403 39996 ft 418 kts 228°
2026-05-09 15:23 38.72083 -74.78225 40015 ft 420 kts 226°
2026-05-09 15:23 38.67553 -74.82961 40010 ft 420 kts 226°
2026-05-09 15:24 38.63015 -74.87695 40011 ft 420 kts 226°
2026-05-09 15:24 38.58471 -74.92419 39989 ft 420 kts 226°
2026-05-09 15:25 38.53955 -74.97103 40011 ft 419 kts 226°
2026-05-09 15:25 38.49547 -75.01968 40024 ft 418 kts 227°
2026-05-09 15:26 38.42676 -75.08926 40032 ft 422 kts 224°
2026-05-09 15:26 38.37967 -75.13412 40003 ft 421 kts 224°
2026-05-09 15:27 38.33305 -75.17844 40025 ft 420 kts 224°
2026-05-09 15:27 38.28617 -75.22294 40027 ft 420 kts 224°
2026-05-09 15:28 38.23924 -75.26736 40027 ft 420 kts 224°
2026-05-09 15:28 38.19222 -75.31179 39994 ft 420 kts 224°
2026-05-09 15:29 38.14532 -75.35598 39998 ft 419 kts 224°
2026-05-09 15:29 38.09872 -75.39985 40012 ft 418 kts 224°
2026-05-09 15:30 38.05186 -75.44389 40016 ft 420 kts 224°
2026-05-09 15:30 38.00358 -75.48643 40020 ft 423 kts 222°
2026-05-09 15:31 37.95495 -75.52843 40015 ft 421 kts 223°
2026-05-09 15:31 37.90539 -75.56844 40024 ft 426 kts 217°
2026-05-09 15:32 37.84980 -75.59772 40023 ft 440 kts 207°
2026-05-09 15:32 37.78915 -75.61368 40017 ft 456 kts 197°
2026-05-09 15:33 37.72481 -75.61641 40004 ft 464 kts 191°
2026-05-09 15:33 37.66080 -75.61957 40017 ft 456 kts 197°
2026-05-09 15:34 37.59854 -75.63048 40019 ft 448 kts 201°
2026-05-09 15:34 37.53696 -75.64367 40019 ft 449 kts 200°
2026-05-09 15:35 37.47534 -75.65674 40019 ft 449 kts 200°
2026-05-09 15:35 37.41367 -75.66985 40020 ft 449 kts 200°
2026-05-09 15:36 37.35246 -75.68284 40021 ft 449 kts 200°
2026-05-09 15:36 37.29079 -75.69586 39992 ft 448 kts 201°
2026-05-09 15:37 37.22938 -75.70888 40015 ft 447 kts 201°
2026-05-09 15:37 37.16810 -75.72188 40023 ft 447 kts 201°
2026-05-09 15:38 37.10783 -75.73808 40028 ft 438 kts 206°
2026-05-09 15:38 37.05022 -75.76096 40013 ft 429 kts 212°
2026-05-09 15:39 36.99623 -75.78974 40026 ft 421 kts 217°
2026-05-09 15:39 36.94462 -75.82415 40016 ft 419 kts 219°
2026-05-09 15:40 36.89357 -75.85943 40015 ft 419 kts 219°
2026-05-09 15:40 36.84244 -75.89465 39987 ft 417 kts 220°
2026-05-09 15:41 36.79218 -75.92933 39997 ft 415 kts 220°
2026-05-09 15:41 36.74164 -75.96424 40007 ft 415 kts 220°
2026-05-09 15:42 36.69108 -75.99909 40019 ft 415 kts 220°
2026-05-09 15:42 36.64057 -76.03382 39975 ft 414 kts 220°
2026-05-09 15:43 36.59014 -76.06840 40015 ft 412 kts 220°
2026-05-09 15:43 36.53986 -76.10288 40007 ft 412 kts 220°
2026-05-09 15:44 36.48958 -76.13732 40005 ft 412 kts 220°
2026-05-09 15:44 36.43922 -76.17174 40010 ft 412 kts 221°
2026-05-09 15:45 36.38926 -76.20580 39987 ft 410 kts 221°
2026-05-09 15:45 36.33920 -76.23994 40019 ft 410 kts 221°
2026-05-09 15:46 36.28913 -76.27404 40021 ft 410 kts 221°
2026-05-09 15:46 36.23910 -76.30806 40018 ft 410 kts 221°
2026-05-09 15:47 36.18933 -76.34182 39979 ft 409 kts 221°
2026-05-09 15:47 36.13948 -76.37557 40011 ft 408 kts 221°
2026-05-09 15:48 36.08970 -76.40928 40015 ft 408 kts 221°
2026-05-09 15:48 36.03992 -76.44292 40018 ft 408 kts 221°
2026-05-09 15:49 35.98997 -76.47662 40020 ft 408 kts 221°
2026-05-09 15:49 35.94024 -76.51000 40004 ft 405 kts 221°
2026-05-09 15:50 35.89913 -76.53769 40012 ft 404 kts 221°
2026-05-09 15:50 35.84049 -76.57462 40001 ft 408 kts 220°
2026-05-09 15:51 35.78968 -76.60577 40007 ft 408 kts 220°
2026-05-09 15:51 35.74741 -76.63174 39963 ft 408 kts 220°
2026-05-09 15:52 35.67118 -76.67853 40005 ft 408 kts 220°
2026-05-09 15:53 35.62041 -76.70973 40008 ft 408 kts 220°
2026-05-09 15:53 35.56963 -76.74087 40013 ft 408 kts 220°
2026-05-09 15:54 35.51880 -76.77203 39993 ft 408 kts 220°
2026-05-09 15:54 35.46825 -76.80295 40005 ft 409 kts 220°
2026-05-09 15:55 35.41719 -76.83416 40014 ft 409 kts 220°
2026-05-09 15:55 35.36614 -76.86527 40015 ft 410 kts 220°
2026-05-09 15:56 35.31511 -76.89634 40025 ft 409 kts 220°
2026-05-09 15:56 35.26398 -76.92745 40022 ft 409 kts 220°
2026-05-09 15:57 35.21347 -76.95852 40027 ft 408 kts 221°
2026-05-09 15:57 35.16298 -76.99029 40019 ft 408 kts 221°
2026-05-09 15:58 35.11241 -77.02203 40049 ft 408 kts 221°
2026-05-09 15:58 35.06187 -77.05366 40046 ft 408 kts 221°
2026-05-09 15:59 35.01117 -77.08540 40044 ft 411 kts 221°
2026-05-09 15:59 34.96001 -77.11729 40053 ft 412 kts 220°
2026-05-09 16:00 34.90894 -77.14908 40045 ft 412 kts 220°
2026-05-09 16:00 34.85785 -77.18082 40040 ft 412 kts 220°
2026-05-09 16:01 34.80697 -77.21244 39995 ft 413 kts 220°
2026-05-09 16:01 34.75535 -77.24454 40027 ft 417 kts 220°
2026-05-09 16:02 34.70346 -77.27661 40006 ft 418 kts 220°
2026-05-09 16:02 34.62549 -77.32478 39564 ft 418 kts 220°
2026-05-09 16:03 34.59955 -77.34073 39222 ft 415 kts 221°
2026-05-09 16:03 34.57381 -77.35648 39171 ft 415 kts 221°
2026-05-09 16:03 34.52156 -77.38875 39222 ft 425 kts 221°
2026-05-09 16:04 34.46873 -77.42149 39381 ft 435 kts 217°
2026-05-09 16:04 34.43878 -77.43194 39722 ft 459 kts 203°
2026-05-09 16:04 34.40687 -77.43650 39991 ft 463 kts 199°
2026-05-09 16:05 34.34260 -77.44284 39968 ft 459 kts 200°
2026-05-09 16:05 34.27931 -77.45233 40017 ft 458 kts 201°
2026-05-09 16:06 34.21637 -77.46368 40026 ft 457 kts 202°
2026-05-09 16:06 34.15396 -77.47558 40028 ft 456 kts 202°
2026-05-09 16:07 34.09119 -77.48773 39972 ft 456 kts 202°
2026-05-09 16:07 34.02868 -77.49987 40017 ft 454 kts 202°
2026-05-09 16:08 33.96631 -77.51197 40026 ft 454 kts 202°
2026-05-09 16:08 33.90395 -77.52405 40028 ft 454 kts 202°
2026-05-09 16:09 33.84153 -77.53614 40029 ft 454 kts 202°
2026-05-09 16:09 33.77938 -77.54816 40020 ft 451 kts 202°
2026-05-09 16:10 33.71742 -77.56009 40028 ft 451 kts 202°
2026-05-09 16:10 33.65543 -77.57203 40036 ft 451 kts 202°
2026-05-09 16:11 33.59380 -77.58457 40039 ft 446 kts 205°
2026-05-09 16:11 33.53461 -77.60269 40022 ft 438 kts 208°
2026-05-09 16:12 33.47601 -77.62321 40037 ft 438 kts 208°
2026-05-09 16:12 33.41758 -77.64359 40040 ft 438 kts 208°
2026-05-09 16:13 33.35891 -77.66406 40042 ft 438 kts 208°
2026-05-09 16:13 33.30074 -77.68439 40022 ft 439 kts 208°
2026-05-09 16:14 33.24200 -77.70485 40036 ft 440 kts 208°
2026-05-09 16:14 33.18321 -77.72527 40039 ft 440 kts 208°
2026-05-09 16:15 33.12442 -77.74568 40042 ft 440 kts 208°
2026-05-09 16:15 33.06559 -77.76608 39998 ft 440 kts 208°
2026-05-09 16:16 33.00653 -77.78655 40032 ft 442 kts 208°
2026-05-09 16:16 32.94744 -77.80698 40042 ft 442 kts 208°
2026-05-09 16:17 32.88870 -77.82726 40043 ft 442 kts 208°
2026-05-09 16:17 32.82955 -77.84766 40043 ft 442 kts 208°
2026-05-09 16:18 32.77036 -77.86804 40040 ft 442 kts 208°
2026-05-09 16:18 32.71125 -77.88836 40040 ft 442 kts 208°
2026-05-09 16:19 32.65195 -77.90857 40043 ft 443 kts 207°
2026-05-09 16:19 32.59241 -77.92791 40043 ft 444 kts 207°
2026-05-09 16:20 32.53280 -77.94715 40031 ft 444 kts 207°
2026-05-09 16:20 32.47359 -77.96630 40041 ft 444 kts 207°
2026-05-09 16:21 32.41405 -77.98555 40044 ft 444 kts 207°
2026-05-09 16:21 32.35455 -78.00477 40047 ft 443 kts 207°
2026-05-09 16:22 32.29502 -78.02398 40024 ft 443 kts 207°
2026-05-09 16:22 32.23549 -78.04316 40040 ft 444 kts 207°
2026-05-09 16:23 32.17587 -78.06234 40043 ft 444 kts 207°
2026-05-09 16:23 32.11627 -78.08149 40049 ft 444 kts 207°
2026-05-09 16:24 32.05667 -78.10061 40017 ft 444 kts 207°
2026-05-09 16:24 31.99712 -78.11966 40041 ft 446 kts 207°
2026-05-09 16:25 31.93719 -78.13886 40049 ft 446 kts 207°
2026-05-09 16:25 31.87720 -78.15803 40051 ft 446 kts 207°
2026-05-09 16:26 31.81718 -78.17718 40051 ft 446 kts 207°
2026-05-09 16:26 31.75752 -78.19618 40040 ft 447 kts 207°
2026-05-09 16:27 31.69741 -78.21532 40045 ft 448 kts 207°
2026-05-09 16:27 31.63724 -78.23444 40050 ft 448 kts 207°
2026-05-09 16:28 31.57703 -78.25354 40045 ft 448 kts 207°
2026-05-09 16:28 31.51689 -78.27259 40005 ft 448 kts 207°
2026-05-09 16:29 31.45710 -78.29162 40043 ft 448 kts 208°
2026-05-09 16:29 31.39730 -78.31167 40042 ft 447 kts 208°
2026-05-09 16:30 31.33710 -78.33195 40048 ft 447 kts 208°
2026-05-09 16:30 31.27764 -78.35189 40047 ft 447 kts 208°
2026-05-09 16:31 31.21788 -78.37190 40037 ft 446 kts 208°
2026-05-09 16:31 31.15810 -78.39183 40046 ft 446 kts 208°
2026-05-09 16:32 31.10856 -78.40832 40048 ft 446 kts 208°
2026-05-09 16:32 31.03875 -78.43154 40049 ft 446 kts 208°
2026-05-09 16:33 30.97947 -78.45124 40033 ft 446 kts 208°
2026-05-09 16:33 30.91951 -78.47114 40044 ft 447 kts 208°
2026-05-09 16:34 30.85966 -78.49096 40051 ft 447 kts 208°
2026-05-09 16:34 30.79970 -78.51079 40051 ft 447 kts 208°
2026-05-09 16:35 30.73984 -78.53057 40054 ft 447 kts 208°
2026-05-09 16:35 30.67982 -78.55040 40042 ft 449 kts 208°
2026-05-09 16:36 30.55981 -78.58991 40056 ft 449 kts 207°
2026-05-09 16:37 30.49954 -78.60971 40057 ft 450 kts 207°
2026-05-09 16:37 30.43926 -78.62950 40028 ft 451 kts 208°
2026-05-09 16:38 30.37853 -78.64944 40047 ft 454 kts 207°
2026-05-09 16:38 30.31768 -78.66935 40053 ft 454 kts 207°
2026-05-09 16:39 30.25674 -78.68925 40055 ft 454 kts 207°
2026-05-09 16:39 30.19595 -78.70909 40052 ft 454 kts 208°
2026-05-09 16:40 30.13547 -78.72884 40053 ft 454 kts 208°
2026-05-09 16:42 29.89234 -78.80794 40021 ft 455 kts 207°
2026-05-09 16:42 29.84123 -78.82446 40037 ft 455 kts 207°
2026-05-09 16:43 29.77966 -78.84160 40041 ft 463 kts 202°
2026-05-09 16:43 29.71524 -78.85225 40043 ft 470 kts 198°
2026-05-09 16:44 29.65031 -78.86097 40039 ft 470 kts 198°
2026-05-09 16:44 29.58536 -78.86973 40030 ft 469 kts 198°
2026-05-09 16:45 29.52053 -78.87842 40040 ft 469 kts 198°
2026-05-09 16:45 29.45578 -78.88710 40042 ft 469 kts 198°
2026-05-09 16:46 29.39088 -78.89583 40039 ft 469 kts 198°
2026-05-09 16:46 29.32597 -78.90457 40023 ft 469 kts 197°
2026-05-09 16:47 29.26159 -78.91316 40040 ft 469 kts 197°
2026-05-09 16:47 29.19663 -78.92183 40044 ft 468 kts 197°
2026-05-09 16:48 29.15377 -78.92755 40045 ft 468 kts 197°